Location: ??????
(56.0120°N, 39.1740°E)
Time: 06:51:30
(UTC+00:00)

NOSS 3-4 (C) - Pass Details

Date: 14 April 2026
Orbit: 773 x 1438 km, 63.4° (Epoch: 26 December)

Event Time Altitude Azimuth Distance (km) Brightness Sun altitude
Rises 23:38:27 0° 298° (WNW) 3,483 6.3 -18.6°
Reaches altitude 10° 23:40:52 10° 303° (WNW) 2,617 5.7 -18.4°
Maximum altitude 23:46:52 54° 21° (NNE) 1,232 4.4 -17.9°
Drops below altitude 10° 23:53:57 10° 98° (E) 3,069 6.5 -17.3°
Sets 23:56:59 0° 103° (ESE) 4,134 7.1 -17.0°
